Regional Weather Roundup
Issued by NWS Upton, NY

Current Version | Previous Version | Text Only | Print | Product List | Glossary On
Versions: 1 2 3 4 5 6 7 8 9 10 11 12 13 14 15 16 17 18 19 20 21 22 23 24 25 26 27 28 29 30 31 32 33 34 35 36 37 38 39 40 41 42 43 44 45 46 47 48 49 50
000
ASUS41 KOKX 221609
RWROKX

REGIONAL WEATHER ROUNDUP
NATIONAL WEATHER SERVICE NEW YORK NY
1200 PM EDT MON MAY 22 2017

NOTE: "FAIR" INDICATES FEW OR NO CLOUDS BELOW 12,000 FEET WITH NO
SIGNIFICANT WEATHER AND/OR OBSTRUCTIONS TO VISIBILITY.

NYZ071-072-176-178-NJZ106-104-221700-
NEW YORK CITY METRO AREA

CITY           SKY/WX    TMP DP  RH WIND       PRES   REMARKS
Central Park   LGT RAIN  56  55  97 S3        30.12F FOG
Wall St Helipt CLOUDY    57  55  94 NE8       30.10F
Bronx Bot Gard   N/A     55  54  94 SE1       30.11F
LaGuardia APRT LGT RAIN  60  54  80 E10       30.09F
Kennedy INTL   RAIN      57  57 100 E14       30.10F FOG
Breezy Point     N/A     54 N/A N/A E13         N/A
Newark/Liberty LGT RAIN  56  55  97 E6        30.09F FOG
Teterboro      LGT RAIN  56  55  97 E6        30.09F FOG
$$

NYZ177-179-078>081-221700-
LONG ISLAND NEW YORK

CITY           SKY/WX    TMP DP  RH WIND       PRES   REMARKS
Jones Beach      N/A     54 N/A N/A SE12        N/A
Matinecock PT    N/A     55 N/A N/A SE5         N/A
Farmingdale    LGT RAIN  56  55  97 SE14      30.11F FOG
MacArthur/ISP  LGT RAIN  55  55 100 SE12      30.12F VSB 1/2
Shirley        LGT RAIN  54  54 100 SE7       30.13F FOG
Mt Sinai Harb    N/A     55 N/A N/A S10         N/A
Westhampton    RAIN      54  50  86 SE9       30.15F FOG
East Hampton   CLOUDY    54  49  82 S9        30.14F
Montauk          N/A     56  51  84 S9        30.16F
$$

NYZ052-065-067-221700-
HUDSON VALLEY

CITY           SKY/WX    TMP DP  RH WIND       PRES   REMARKS
White Plains   LGT RAIN  54  52  93 E9        30.10F FOG
Larchmont Harb   N/A     54 N/A N/A NE7         N/A
Croton O-T Hud   N/A     55 N/A N/A S5          N/A
Newburgh       NOT AVBL
Montgomery     CLOUDY    58  51  78 SE7       30.08F
Poughkeepsie   CLOUDY    58  48  69 S9        30.08F
Albany         CLOUDY    58  47  66 S13G22    30.04F
$$

NJZ001-105-106-008-010-013-015-019>022-104-221700-
NEW JERSEY

CITY           SKY/WX    TMP DP  RH WIND       PRES   REMARKS
Newark/Liberty LGT RAIN  56  55  97 E6        30.09F FOG
Teterboro      LGT RAIN  56  55  97 E6        30.09F FOG
Caldwell       LGT RAIN  58  54  86 SE5       30.10F FOG
Somerville     CLOUDY    57  55  93 CALM      30.06F FOG
Linden         DRIZZLE   56  54  94 SE5       30.09F
Perth Amboy      N/A     55 N/A N/A E9          N/A
Sussex         CLOUDY    56  53  90 VRB3      30.09F
Andover          N/A     56  53  90 CALM      30.07F
Trenton        LGT RAIN  58  57  97 SE5       30.06F FOG
Millville      LGT RAIN  60  60 100 NE5       30.05F
Atlantic City  RAIN      63  61  94 SE6       30.06F FOG
Wrightstown    RAIN      59  58  96 SE6       30.04F FOG
Toms River     RAIN      59  59 100 SE5       30.08F FOG
Belmar         RAIN      58  57  97 SE6       30.09F
$$

PAZ047>061-062-071-221700-
EASTERN PENNSYLVANIA

CITY           SKY/WX    TMP DP  RH WIND       PRES   REMARKS
Philadelphia   CLOUDY    60  58  92 E6        30.06F
Allentown      LGT RAIN  57  53  86 VRB3      30.07F
Scranton       CLOUDY    62  55  77 VRB3      30.03F
$$

CTZ002-004>006-009-010-012-RIZ004-006-007-MAZ004-011-015-221700-
SOUTHERN NEW ENGLAND
 IN CT

CITY           SKY/WX    TMP DP  RH WIND       PRES   REMARKS
Bradley INTL   CLOUDY    57  46  66 S13       30.12F
Hartford       CLOUDY    57  49  74 S8        30.13F
Danbury        CLOUDY    54  51  90 SE9       30.12F
Wtrbury/Oxford CLOUDY    55  45  67 S13G18    30.14F
Bridgeport     LGT RAIN  56  52  86 E6        30.13S FOG
Meriden        CLOUDY    58  47  66 S10       30.12F
New Haven      CLOUDY    55  48  77 SE6       30.14F
Chester        CLOUDY    55  48  76 SE9       30.14F
Groton         CLOUDY    56  50  80 SE13G20   30.15F
Wilimantic     CLOUDY    57  47  69 S8        30.15F

 IN RI

CITY           SKY/WX    TMP DP  RH WIND       PRES   REMARKS
Providence     LGT RAIN  56  47  71 S10       30.17F
Block Island   CLOUDY    54  49  83 S14       30.17F
Westerly       CLOUDY    56  50  80 S8        30.17F
 IN MA

CITY           SKY/WX    TMP DP  RH WIND       PRES   REMARKS
Boston         LGT RAIN  50  44  80 E6        30.18F
Worcester      NOT AVBL
Westfield      CLOUDY    55  44  66 S8        30.12F
Provincetown   CLOUDY    56  46  69 S9        30.20F
Nantucket      CLOUDY    54  42  64 SE15      30.20F
$$

ANZ330-335-338-340-345-350-353-355-221700-
COASTAL MARINE OBSERVATIONS


STATION/POSITION TIME  SKY/WX   TEMP    WIND        PRES    VSBY  WAVE
                                AIR SEA DIR/SP/G                  HT/PER
                 (UTC)          (F)     (DEG/KT/KT) (MB)    (MI)  (FT/S)
NY HARB ENTRANCE 1550            56 56  130/ 16/ 19 1018.7          3/ 4
20 S FIRE ISLAND 1550            54 54  120/ 14/ 16 1019.0          3/ 4
GREAT SOUTH BAY  1515            55 65  120/ 16/ 17   N/A
23 SSW MONTAUK P 1550            53 54              1021.0          3/ 4
15 E BARNEGAT LI 1530               56                N/A           3/ 6
HUDSON CANYON    1550            56 54  130/ 12/ 12 1019.3          3/ 5
KINGS POINT      1548            55 57  170/  2/  6 1019.0
EXECUTION ROCKS  1545            56                   N/A
CENTRAL LI SOUND 1530            56     150/ 12/ 14   N/A           1
EASTERN LI SOUND NOT AVBL
ROBBINS REEF     1548            56     120/ 10/ 13 1019.4
$$


>>>>>>>>>>>>>>>>>>>>>>>>>>>> KEY <<<<<<<<<<<<<<<<<<<<<<<<<<<
>                                                          <
>     SKY/WX - Sky Condition/Present Weather               <
>     TMP    - Temperature in Fahrenheit                   <
>     DP     - Dew Point in Fahrenheit                     <
>     RH     - Relative Humidity in Percent                <
>     WIND   - Direction (from) and Speed in MPH           <
>     PRES   - Mean Sea Level Pressure (inches of Hg)      <
>     WCI    - Wind Chill Index                            <
>     VSB    - VISIBILITY IN MILES                         <
>     HX     - HEAT INDEX                                  <
>     TC     - TEMPERATURE IN CELSIUS                      <
>     VRB    - VARIABLE WIND DIRECTION                     <
>                                                          <
>>>>>>>>>>>>>>>>>>>>>>>>>>>> KEY <<<<<<<<<<<<<<<<<<<<<<<<<<<



USA.gov is the U.S. government's official web portal to all federal, state and local government web resources and services.